Location: Nesbit
(34.8818°N, 90.0087°W)
Time: 08:31:05
(UTC+00:00)

Daily predictions for brighter satellites

Satellite Brightness Start Highest point End
(mag) Time Altitude Azimuth Time Altitude Azimuth Time Altitude Azimuth
CZ-3C R/B 3.9 12:00:03 10° SW 12:05:21 35° SSE 12:35:05 10° ESE
Helios 1A Rocket 2.7 12:02:28 10° S 12:05:39 44° W 12:08:52 10° NNW
USA 290 3.6 12:03:00 10° S 12:06:02 41° ESE 12:09:05 10° NNE
Cosmos 2322 Rocket 2.8 12:03:55 10° NW 12:09:06 38° WSW 12:14:16 10° S
Cosmos 1484 Rocket 2.8 12:06:47 10° N 12:09:57 39° WNW 12:13:05 10° SW
Cosmos 1602 Rocket 4.1 12:16:43 10° SSW 12:20:50 37° W 12:24:57 10° N
BREEZE M DEB (TANK) 3.8 12:19:40 10° NW 12:21:01 13° N 12:22:46 10° NNE
Cosmos 1812 Rocket 3.5 12:17:42 10° NNW 12:22:00 63° W 12:26:18 10° S
Meteor 1-25 Rocket 4.3 12:16:54 10° S 12:22:40 86° W 12:28:30 10° N
Cosmos 2221 2.5 12:20:42 10° NNW 12:24:44 53° W 12:28:46 10° S
Cosmos 2322 4.5 12:20:24 10° NNW 12:25:57 54° ENE 12:31:28 10° SE
Cosmos 1437 Rocket 2.5 12:24:41 10° NNW 12:28:07 60° W 12:31:34 10° S
IRIS 3.8 12:29:10 10° WSW 12:32:08 81° NNW 12:35:03 10° ENE
Okean 1-7 Rocket 4.0 12:28:15 10° SSW 12:32:31 42° W 12:36:46 10° N
ATLAS 2AS CENTAUR R/B 3.6 12:28:43 10° WSW 12:34:37 28° NW 12:40:25 10° N
Cosmos 1842 2.8 12:31:21 10° N 12:34:41 87° E 12:37:57 10° S
OAO 2 Rocket 3.5 12:32:12 10° W 12:37:25 84° S 12:42:33 10° ESE
ATLAS 5 CENTAUR R/B 4.5 22:42:10 10° S 22:47:44 50° ESE 23:08:12 10° NE
Cosmos 1898 Rocket 3.9 23:07:58 10° S 23:12:49 45° ESE 23:17:43 10° NNE
Sakura Rocket 4.4 23:15:51 10° WSW 23:21:05 39° S 23:25:06 10° ESE
Cosmos 2333 Rocket 4.0 23:20:30 10° ESE 23:22:15 11° E 23:23:59 10° E
IGS 5A 3.8 23:19:21 10° S 23:23:15 67° WSW 23:27:13 10° NNW
Okean 1 4.1 23:21:47 10° SSE 23:24:49 25° E 23:27:49 10° NE
SL-16 R/B 3.8 23:19:57 10° N 23:25:44 42° WNW 23:31:29 10° SW
Cosmos 1937 Rocket 3.9 23:21:26 10° S 23:26:18 43° ESE 23:31:10 10° NNE
Cosmos 2058 Rocket 3.4 23:23:52 10° SSE 23:28:06 44° E 23:32:21 10° NNE
USA 238 DEB 4.1 23:26:58 10° SW 23:32:47 53° NW 23:39:07 10° NNE
USA 238 4.1 23:27:03 10° SW 23:32:54 54° NW 23:39:16 10° NNE
Cosmos-2242 3.2 23:31:33 10° SSE 23:35:37 48° E 23:39:44 10° NNE
CZ-2D R/B 2.8 23:32:40 10° SSE 23:35:41 50° ENE 23:38:44 10° N
SL-24 R/B - RUBIN 2 4.0 23:38:44 10° SSW 23:44:24 72° ESE 23:49:23 10° NE
SAR-Lupe-4 3.4 23:43:18 10° SSE 23:46:50 78° ENE 23:50:23 10° N
Aureole 1 Rocket 4.2 23:45:58 10° SW 23:50:07 49° WNW 23:55:23 10° N
CZ-2D R/B 4.2 23:50:01 10° SE 23:53:39 29° ENE 23:57:14 10° NNE
ARIANE 5 R/B 2.6 23:48:50 10° SSE 23:53:53 84° WSW 23:59:01 10° NNW
Atlas Centaur 2 3.4 23:53:44 10° S 23:55:22 13° SSE 23:56:59 10° SE
